This is the latest recevied weather packets stored in our database for station/object SP1BMW-13. If no packets are shown the sender has not sent any weather packets the latest 10 day(s).
| Time | Temp. | Humidity | Pressure | Rain* | Wind** | Luminosity | Snow |
|---|---|---|---|---|---|---|---|
| 1787895799 | 18.33° C | 61% | 1012.3 hPa | 0 mm | 0.89 m/s, 60° | 78 W/m² | - |
| 1787895738 | 18.33° C | 60% | 1012.6 hPa | 0 mm | 0.45 m/s, 48° | 78 W/m² | - |
| 1787895678 | 18.33° C | 60% | 1012.2 hPa | 0 mm | 1.34 m/s, 113° | 77 W/m² | - |
| 1787895618 | 18.33° C | 61% | 1012.3 hPa | 0 mm | 0.89 m/s, 10° | 77 W/m² | - |
| 1787895558 | 18.33° C | 60% | 1012.4 hPa | 0 mm | 0.45 m/s, 72° | 78 W/m² | - |
| 1787895498 | 18.33° C | 60% | 1012.1 hPa | 0 mm | 1.34 m/s, 46° | 78 W/m² | - |
| 1787895438 | 18.33° C | 60% | 1012.1 hPa | 0 mm | 0.89 m/s, 86° | 78 W/m² | - |
| 1787895378 | 18.33° C | 60% | 1012 hPa | 0 mm | 1.79 m/s, 47° | 78 W/m² | - |
| 1787895318 | 18.33° C | 60% | 1012.2 hPa | 0 mm | 0.89 m/s, 157° | 79 W/m² | - |
| 1787895258 | 18.33° C | 60% | 1012.1 hPa | 0 mm | 0.89 m/s, 38° | 83 W/m² | - |
| 1787895198 | 18.33° C | 61% | 1011.9 hPa | 0 mm | 0.89 m/s, 130° | 84 W/m² | - |
| 1787895138 | 18.33° C | 61% | 1011.8 hPa | 0 mm | 1.34 m/s, 51° | 85 W/m² | - |
| 1787895078 | 17.78° C | 61% | 1012 hPa | 0 mm | 0.45 m/s, 93° | 82 W/m² | - |
| 1787895018 | 17.78° C | 61% | 1012 hPa | 0 mm | 1.79 m/s, 43° | 80 W/m² | - |
| 1787894958 | 17.78° C | 61% | 1012 hPa | 0 mm | 1.79 m/s, 72° | 78 W/m² | - |
| 1787894898 | 17.78° C | 61% | 1011.8 hPa | 0 mm | 1.79 m/s, 103° | 78 W/m² | - |
| 1787894838 | 17.78° C | 61% | 1011.9 hPa | 0 mm | 1.34 m/s, 65° | 77 W/m² | - |
| 1787894778 | 17.78° C | 61% | 1012 hPa | 0 mm | 1.79 m/s, 124° | 76 W/m² | - |
| 1787894718 | 17.78° C | 61% | 1012 hPa | 0 mm | 2.68 m/s, 95° | 74 W/m² | - |
| 1787894658 | 17.78° C | 61% | 1011.9 hPa | 0 mm | 0.45 m/s, 260° | 73 W/m² | - |
| 1787894598 | 17.78° C | 61% | 1011.8 hPa | 0 mm | 2.24 m/s, 139° | 71 W/m² | - |
| 1787894538 | 17.78° C | 62% | 1011.7 hPa | 0 mm | 0.45 m/s, 64° | 69 W/m² | - |
| 1787894478 | 17.78° C | 61% | 1012 hPa | 0 mm | 0.89 m/s, 22° | 67 W/m² | - |
| 1787894418 | 17.78° C | 61% | 1012 hPa | 0 mm | 1.79 m/s, 201° | 65 W/m² | - |
| 1787894358 | 17.78° C | 61% | 1012.2 hPa | 0 mm | 0.89 m/s, 152° | 63 W/m² | - |
* Rain latest hour (hover to see other rain measurements)
** Current wind speed in m/s (hover to see current wind gust speed)